Change the Weather History Date:

Friday, November 16, 2012

  Actual Average Record
Temperature  
Mean Temperature 30 °F -  
Max Temperature 37 °F 31 °F 39 °F (1965)
Min Temperature 23 °F 22 °F 8 °F (1973)
Degree Days  
Heating Degree Days 35    
Moisture  
Dew Point 11 °F    
Average Humidity 45    
Maximum Humidity 74    
Minimum Humidity 32    
Precipitation  
Precipitation 0.00 in - - ()
Sea Level Pressure  
Sea Level Pressure 29.51 in    
Wind  
Wind Speed 10 mph (NE)    
Max Wind Speed 39 mph    
Max Gust Speed 55 mph    
Visibility 10 miles    
Events      
Averages and records for this station are not official NWS values.
T = Trace of Precipitation, MM = Missing Value Source: NWS Daily Summary

Daily Weather History Graph

Daily Weather History Graph

Search for Another Location

Airport or City:

Trip Planner

Search our weather history database for the weather conditions in past years. The results will help you decide how hot, cold, wet, or windy it might be!

Date:

Astronomy

Nov. 16, 2012 Rise Set
Actual Time 8:54 AM AKST 4:04 PM AKST
Civil Twilight 8:02 AM AKST 4:56 PM AKST
Nautical Twilight 7:08 AM AKST 5:50 PM AKST
Astronomical Twilight 6:17 AM AKST 6:41 PM AKST
Moon 12:13 PM AKST (11/16) 7:02 PM AKST (11/16)
Length of Visible Light 8h 53m
Length of Day
7h 09m
Waxing Crescent, 13% of the Moon is Illuminated
Nov 16
Waxing Crescent
Nov 20
First Quarter
Nov 28
Full
Dec 6
Last Quarter
Dec 12
New

Hourly Weather History & Observations

Time (AKST) Temp. Windchill Dew Point Humidity Pressure Visibility Wind Dir Wind Speed Gust Speed Precip Events Conditions
12:16 AM 26.6 °F 21.2 °F 15.8 °F 64% 29.57 in 10.0 mi West 4.6 mph - N/A   Clear
12:36 AM 24.8 °F 20.5 °F 12.2 °F 59% 29.57 in 10.0 mi West 3.5 mph - N/A   Scattered Clouds
12:56 AM 24.8 °F 17.9 °F 15.8 °F 69% 29.56 in 10.0 mi ESE 5.8 mph - N/A   Scattered Clouds
1:16 AM 24.8 °F 19.1 °F 14.0 °F 64% 29.56 in 10.0 mi West 4.6 mph - N/A   Partly Cloudy
1:36 AM 23.0 °F 17.0 °F 15.8 °F 74% 29.56 in 10.0 mi WNW 4.6 mph - N/A   Clear
1:56 AM 23.0 °F 15.8 °F 14.0 °F 68% 29.55 in 10.0 mi NNW 5.8 mph - N/A   Clear
2:16 AM 24.8 °F 20.5 °F 15.8 °F 69% 29.55 in 10.0 mi ENE 3.5 mph - N/A   Clear
2:36 AM 28.4 °F - 17.6 °F 64% 29.54 in 10.0 mi Calm Calm - N/A   Clear
3:16 AM 26.6 °F 22.6 °F 17.6 °F 69% 29.54 in 10.0 mi NE 3.5 mph - N/A   Partly Cloudy
4:16 AM 33.8 °F 27.0 °F 17.6 °F 52% 29.53 in 10.0 mi NW 8.1 mph 20.7 mph N/A   Clear
4:36 AM 33.8 °F 28.6 °F 17.6 °F 52% 29.53 in 10.0 mi ENE 5.8 mph - N/A   Clear
5:16 AM 35.6 °F 24.2 °F 19.4 °F 52% 29.52 in 10.0 mi East 21.9 mph 32.2 mph N/A   Clear
5:36 AM 35.6 °F 28.0 °F 19.4 °F 52% 29.52 in 10.0 mi NNE 10.4 mph 31.1 mph N/A   Clear
5:56 AM 37.4 °F 28.9 °F 17.6 °F 45% 29.51 in 10.0 mi NNE 13.8 mph 39.1 mph N/A   Clear
6:16 AM 35.6 °F 26.2 °F 17.6 °F 48% 29.51 in 10.0 mi ENE 15.0 mph 29.9 mph N/A   Clear
6:36 AM 35.6 °F 30.7 °F 17.6 °F 48% 29.52 in 10.0 mi ENE 5.8 mph 21.9 mph N/A   Clear
6:56 AM 35.6 °F 31.7 °F 17.6 °F 48% 29.52 in 10.0 mi NE 4.6 mph - N/A   Clear
7:16 AM 35.6 °F 27.1 °F 15.8 °F 44% 29.51 in 10.0 mi NNE 12.7 mph 26.5 mph N/A   Clear
7:36 AM 35.6 °F 27.5 °F 15.8 °F 44% 29.51 in 10.0 mi NE 11.5 mph 23.0 mph N/A   Clear
7:56 AM 35.6 °F 27.5 °F 15.8 °F 44% 29.51 in 10.0 mi WSW 11.5 mph 19.6 mph N/A   Partly Cloudy
8:16 AM 33.8 °F 24.3 °F 15.8 °F 48% 29.51 in 10.0 mi ENE 13.8 mph 33.4 mph N/A   Partly Cloudy
8:56 AM 33.8 °F 21.0 °F 15.8 °F 48% 29.52 in 10.0 mi East 25.3 mph 42.6 mph N/A   Partly Cloudy
9:16 AM 33.8 °F 23.9 °F 12.2 °F 41% 29.53 in 10.0 mi ENE 15.0 mph 40.3 mph N/A   Partly Cloudy
9:36 AM 33.8 °F 20.1 °F 14.0 °F 44% 29.51 in 10.0 mi ENE 29.9 mph 48.3 mph N/A   Partly Cloudy
9:56 AM 33.8 °F 22.8 °F 14.0 °F 44% 29.52 in 10.0 mi North 18.4 mph 42.6 mph N/A   Partly Cloudy
10:16 AM 33.8 °F 29.6 °F 12.2 °F 41% 29.52 in 10.0 mi NE 4.6 mph 36.8 mph N/A   Partly Cloudy
10:36 AM 33.8 °F 20.1 °F 12.2 °F 41% 29.50 in 10.0 mi NNE 29.9 mph 44.9 mph N/A   Partly Cloudy
10:56 AM 35.6 °F 26.2 °F 12.2 °F 38% 29.52 in 10.0 mi NNE 15.0 mph 29.9 mph N/A   Partly Cloudy
11:16 AM 35.6 °F 25.2 °F 12.2 °F 38% 29.49 in 10.0 mi NNE 18.4 mph 36.8 mph N/A   Partly Cloudy
11:36 AM 33.8 °F 20.3 °F 12.2 °F 41% 29.49 in 10.0 mi ENE 28.8 mph 42.6 mph N/A   Partly Cloudy
11:56 AM 33.8 °F 25.8 °F 12.2 °F 41% 29.51 in 10.0 mi ENE 10.4 mph 34.5 mph N/A   Partly Cloudy
12:16 PM 33.8 °F 25.3 °F 12.2 °F 41% 29.49 in 10.0 mi North 11.5 mph 29.9 mph N/A   Partly Cloudy
12:36 PM 33.8 °F 21.9 °F 10.4 °F 38% 29.49 in 10.0 mi East 21.9 mph 38.0 mph N/A   Partly Cloudy
12:56 PM 32.0 °F 17.4 °F 10.4 °F 41% 29.49 in 10.0 mi East 31.1 mph 44.9 mph N/A   Partly Cloudy
1:16 PM 33.8 °F 18.5 °F 10.4 °F 38% 29.48 in 10.0 mi ENE 39.1 mph 55.2 mph N/A   Partly Cloudy
1:36 PM 33.8 °F 20.3 °F 10.4 °F 38% 29.48 in 10.0 mi East 28.8 mph 43.7 mph N/A   Partly Cloudy
1:56 PM 32.0 °F 22.5 °F 10.4 °F 41% 29.49 in 10.0 mi NE 12.7 mph 41.4 mph N/A   Partly Cloudy
2:16 PM 33.8 °F 24.3 °F 10.4 °F 38% 29.49 in 10.0 mi ENE 13.8 mph 33.4 mph N/A   Partly Cloudy
2:36 PM 33.8 °F 26.4 °F 10.4 °F 38% 29.49 in 10.0 mi ENE 9.2 mph 35.7 mph N/A   Partly Cloudy
2:56 PM 33.8 °F 29.6 °F 8.6 °F 35% 29.48 in 10.0 mi SSE 4.6 mph 29.9 mph N/A   Partly Cloudy
3:16 PM 32.0 °F 26.4 °F 6.8 °F 35% 29.48 in 10.0 mi North 5.8 mph 26.5 mph N/A   Partly Cloudy
3:36 PM 30.2 °F 19.3 °F 6.8 °F 37% 29.48 in 10.0 mi ENE 15.0 mph 27.6 mph N/A   Partly Cloudy
3:56 PM 30.2 °F 17.8 °F 6.8 °F 37% 29.46 in 10.0 mi ENE 19.6 mph 38.0 mph N/A   Partly Cloudy
4:36 PM 30.2 °F 20.8 °F 6.8 °F 37% 29.48 in 10.0 mi NNE 11.5 mph 36.8 mph N/A   Partly Cloudy
4:56 PM 30.2 °F 18.5 °F 6.8 °F 37% 29.47 in 10.0 mi NE 17.3 mph 43.7 mph N/A   Partly Cloudy
5:16 PM 30.2 °F 15.7 °F 6.8 °F 37% 29.46 in 10.0 mi East 27.6 mph 48.3 mph N/A   Partly Cloudy
5:36 PM 28.4 °F 14.4 °F 6.8 °F 40% 29.47 in 10.0 mi ENE 23.0 mph 38.0 mph N/A   Partly Cloudy
5:56 PM 30.2 °F 21.3 °F 3.2 °F 32% 29.49 in 10.0 mi NE 10.4 mph 42.6 mph N/A   Clear
6:16 PM 30.2 °F 21.9 °F 3.2 °F 32% 29.48 in 10.0 mi West 9.2 mph 20.7 mph N/A   Clear
6:36 PM 28.4 °F 13.0 °F 3.2 °F 34% 29.46 in 10.0 mi ENE 28.8 mph 38.0 mph N/A   Clear
6:56 PM 28.4 °F 16.2 °F 5.0 °F 37% 29.49 in 10.0 mi NE 17.3 mph 35.7 mph N/A   Clear
7:16 PM 28.4 °F 20.4 °F 5.0 °F 37% 29.49 in 10.0 mi East 8.1 mph 18.4 mph N/A   Clear
7:36 PM 28.4 °F 20.4 °F 3.2 °F 34% 29.50 in 10.0 mi NNE 8.1 mph 20.7 mph N/A   Clear
7:56 PM 26.6 °F - 3.2 °F 37% 29.50 in 10.0 mi Calm Calm - N/A   Clear
8:16 PM 26.6 °F - 3.2 °F 37% 29.51 in 10.0 mi Calm Calm - N/A   Clear
8:36 PM 26.6 °F 20.0 °F 3.2 °F 37% 29.50 in 10.0 mi SSW 5.8 mph - N/A   Clear
8:56 PM 24.8 °F 20.5 °F 1.4 °F 36% 29.50 in 10.0 mi NNE 3.5 mph - N/A   Clear
9:16 PM 26.6 °F 22.6 °F 3.2 °F 37% 29.50 in 10.0 mi WSW 3.5 mph - N/A   Clear
10:16 PM 24.8 °F - 3.2 °F 40% 29.49 in 10.0 mi Calm Calm - N/A   Overcast
10:36 PM 24.8 °F - 3.2 °F 40% 29.49 in 10.0 mi Calm Calm - N/A   Overcast